スパール彗星

242P/Spahr (1999)

English version
Home page
Updated on August 21, 2010

---------------------------------------------------------------------

・ プロフィール

符号 242P/1998 U4
発見日 1998年10月27日
発見光度 17.2等
発見者 Timothy B. Spahr (Catalina Sky Survey)

・ 軌道要素

Epoch 1999 Mar. 3.0 TT = JDT 2451240.5
T 1999 Feb. 26.51217 TT                                 MPC
q   3.8433434            (2000.0)            P               Q
n   0.07497203     Peri.  251.74999     +0.28876746     -0.95727113
a   5.5701883      Node   181.71689     +0.94854666     +0.28383944
e   0.3100155      Incl.   31.51908     -0.12989450     -0.05538181
P  13.15
From 141 observations 1997 Oct. 29-2010 Aug. 16, mean residual 0".68.

・ 星図

・ 光度変化

        m1 = 3.0 + 5 logΔ + 20 log r

---------------------------------------------------------------------

軌道要素はM.P.E.C. 2010-Q05に掲載されたものです。
星図は StellaNavigator Ver.2.0 for Windows (アストロアーツ編著 / アスキー出版局刊) で作成したものです。
光度グラフはComet for Windowsで作成したものです。

---------------------------------------------------------------------

Copyright(C) Seiichi Yoshida (comet@aerith.net). All rights reserved.